Погода в Сызрани

Погода в Сызрани : погода сейчас, прогноз погоды и архив. Всё, что Вы хотите узнать о погоде в Сызрани!

Хотите узнать прогноз погоды в Сызрани? Тогда Вам сюда: Погода в Сызрани

Поиск расширенной информации на нашем сайте:

Полезная информация: Актуальная информация горящие туры в Турцию, цены на путевки в Турцию здесь. - Poisk-toura.com

Другие новости

Новости СМИ2

Главная страница сайта

Новости сайта

03.07.2017

Напоминаем, что на нашем специализированном сайте Метеоцентр.Азия вы можете получить высокодетализированные автоматические прогнозы погоды по пунктам России, СНГ и мира в авиационном формате (включающие направление и скорость ветра, видимость, явления погоды, количество и форму облачности, нижнюю и верхнюю границу облачности).

Рекомендуем: Оплата тура онлайн купить тур онлайн. - Guru-tour.ru

Погода в Сызрани - сегодня

Время (UTC), дата Ветер
(°,м/с) 
Видим.   Явления Облачность Т
(°С)
Тd
(°С)
f(%) Тe
(°С)
Pmin
(гПа)
dP
(гПа)
Po
(мм)
O2
(г/м3)
Тmin Tmax R s Состояние
почвы
00 17.02.18 030 (СВ) 18000 м    8/3 600 м верхняя 
[Sc|Ci fib]
-17.5 -19.2 87 -18  1042.3  -0.8  771  334           
03 17.02.18 тихо ()   18000 м    9/5 600 м верхняя 
[Sc|Ci fib]
-16.9 -18.5 87 -17  1041.6  -0.7  770  332  -20.8      45  неравномерный
мокрый или
старый снег
100% 
06 17.02.18 120 (ЮВ) 20000 м    3/0 верхняя 
[Ci fib]
-14.5 -15.9 89 -17  1041.1  -0.4  770  329           
09 17.02.18 140 (ЮВ) 20000 м    5/0 средняя, верхняя 
[Ac trans|Ci fib]
-10.7 -13.4 80 -14  1040  -0.9  770  324           
12 17.02.18 120 (ЮВ) 20000 м    8/0 средняя, верхняя 
[Ac trans|Ci fib]
-9.8 -13.4 75 -12  1038.8  -1.1  769  323           
18 17.02.18 150 (ЮВ) 18000 м    ясно 
-12.8 -13.5 94 -13  1037.4  -0.8  768  326           
21 17.02.18 130 (ЮВ) 18000 м    ясно 
-14.8 -16.1 90 -15  1036.7  -0.8  767  328           
00 18.02.18 100 (В) 18000 м    ясно 
-15.2 -16.6 89 -15  1035.7  -1  766  328           
03 18.02.18 110 (В) 20000 м  [диам. изморози 3 мм]  3/0 верхняя 
[Ci fib]
-15.5 -16.8 90 -18  1034.4  -1.3  765  328  -16      45  неравномерный
сухой снег
100% 
06 18.02.18 110 (В) 20000 м  [диам. изморози 4 мм]  10/0 верхняя 
[Ci fib]
-13.6 -14.9 90 -16  1033.7  -0.6  765  326           
09 18.02.18 110 (В) 20000 м    10/0 верхняя 
[Ci fib]
-10.1 -13.5 76 -13  1031.9  -1.6  764  321           
12 18.02.18 120 (ЮВ) 20000 м    10/0 
[]
-7.8 -12.8 67 -11  1029.9  -1.9  762  317           
15 18.02.18 120 (ЮВ) 5000 м  слаб. снег  10/10 400 м 
[St]
-8.3 -9.1 94 -12  1027.8  -2.1  761  317    -7.7  0.0     
03 19.02.18 160 (Ю) 4000 м  слаб. снег  10/10 300 м 
[Frnb|Ns]
-7.3 -7.7 97 -10  1023.1  -0.9  757  314  -8.3    49  неравномерный
сухой снег
100% 
15 19.02.18 160 (Ю) 55000 м  слаб. снег  10/10 300 м 
[Frnb|Ns]
-7.9 -8.4 96 -9  1022.1  -0.5  756  315    -6.4     
21 19.02.18 тихо ()   19000 м  {снег}  ясно 
-14.5 -15.7 91 -15  1020.6  -1.1  755  323           
03 20.02.18 300 (СЗ) 16000 м  [диам. изморози 1 мм]  8/0 верхняя 
[Ci fib]
-14.1 -15.2 91 -14  1019  -0.9  754  322  -15.1    0.4  51  неравномерный
сухой снег
100% 
06 20.02.18 240 (ЮЗ) 20000 м  [диам. изморози 5 мм]  9/0 средняя 
[Ac trans]
-10.2 -11 94 -10  1018.5  -0.3  754  317           
09 20.02.18 190 (Ю) 20000 м    10/3 600 м средняя, верхняя 
[Sc|Ac trans|Ci fib]
-6.7 -8.5 87 -6  1017.8  -0.6  753  312           
12 20.02.18 170 (Ю) 20000 м    10/1 600 м средняя, верхняя 
[Sc|Ac trans|Ci fib]
-7.1 -10.4 77 -9  1017.1  -0.7  753  312           
15 20.02.18 140 (ЮВ) 17000 м  в посл. час снег  10/10 660 м 
[Sc]
-7.8 -8.6 94 -8  1016.9  -0.2  753  313    -5.4  0.3     
18 20.02.18 270 (З) 15000 м  {снег}  ясно 
-7.6 -7.9 98 -9  1017  0.1  753  313           
21 20.02.18 280 (З) 17000 м    ясно 
-8.8 -9.3 96 -12  1017.4  0.3  753  314           
00 21.02.18 270 (З) 18000 м    ясно 
-10.8 -11.5 95 -13  1018.2  0.7  753  317           
03 21.02.18 280 (З) 15000 м  слаб. снег  10/0 средняя 
[As op]
-10.7 -11.3 95 -13  1018.8  0.6  754  317  -12.4    0.0  52  неравномерный
сухой снег
100% 
Время (UTC), дата Ветер
(°,м/с) 
Видим.   Явления Облачность Т
(°С)
Тd
(°С)
f(%) Тe
(°С)
Pmin
(гПа)
dP
(гПа)
Po
(мм)
O2
(г/м3)
Тmin Tmax R s Состояние
почвы

Для получения пояснительной информации подведите курсор к названию столбца.

ПОГОДА в Сызрани - архив

Всё, что Вы хотите узнать о погоде в Сызрани - удобно и подробно!

Выберите нужную дату (начиная с 1 января 2015* года) и нажмите кнопку "Найти".
Будут отображены архивные сводки погоды по пункту Сызрань, начиная с указанной даты.


Отображать данные в формате CSV (для использования в таблицах Excel)


Внимание! Наш архив погоды предназначен исключительно для личного некоммерческого использования в познавательных целях. Если Вам необходимы официальные справки о состоянии погоды (для производственных, юридических, коммерческих и т.п. целей), обращайтесь в органы Росгидромета.

*Примечание: данная дата относится к архиву по метеостанциям СССР (Россия, СНГ, Балтия).
Архив по метеостанциям Зарубежной Европы и Азии (кроме Китая) хранится 10 дней, по другим регионам земного шара (Китай, Африка, Америка, Австралия, Океания) - 1 день.

Сызрань - район местоположения метеостанции


Название, широта, долгота, высота метеостанции:
Сызрань 53.2°ш. 48.4°д. 103 м над ур. моря [Российская Федерация]

Дополнительная информация

В oтличие oт бoльшинства пoгoдных сайтoв мы публикуем пoдрoбную метеoинфoрмацию в детальнoм прoфессиoнальнoм фoрмате.

Характеристики температуры и влажнoсти вoздуха измеряются на высoте 2 м в тени вдали oт зданий и деревьев.
Скoрoсть ветра измеряется на высoте 10 м (на урoвне рoста челoвека скoрoсть ветра ниже в 1.5-2 раза). Если метеoстанция нахoдится в гoрoде или в лесу, тo скoрoсть ветра занижена на 2-4 м/с пo сравнению с oткрытым местoм. Скoрoсть ветра над акватoриями крупных рек и oзёр, а также на вершинах хoлмoв на 2-5 м/с выше, чем в oбычных услoвиях.
Атмoсфернoе давление в разных тoчках местнoсти мoжет значительнo oтличаться oт давления на метеoстанции, в зависимoсти oт услoвий рельефа (при пoдъёме на 10 м давление пoнижается примернo на 1 мм рт.ст.).